Weather History for Juneau, WI

Change the Weather History Date:

Saturday, April 28, 2012

  Actual Average Record
Temperature  
Mean Temperature 38 °F -  
Max Temperature 41 °F 59 °F 84 °F (1986)
Min Temperature 35 °F 40 °F 28 °F (2005)
Degree Days  
Heating Degree Days 27    
Moisture  
Dew Point 32 °F    
Average Humidity 77    
Maximum Humidity 100    
Minimum Humidity 36    
Precipitation  
Precipitation 0.13 in - - ()
Sea Level Pressure  
Sea Level Pressure 30.18 in    
Wind  
Wind Speed 10 mph (ENE)    
Max Wind Speed 17 mph    
Max Gust Speed 25 mph    
Visibility 9 miles    
Events Rain    
Averages and records for this station are not official NWS values.
T = Trace of Precipitation, MM = Missing Value Source: NWS Daily Summary

Daily Weather History Graph

Daily Weather History Graph

Search for Another Location

Airport:

Trip Planner

Search our weather history database for the weather conditions in past years. The results will help you decide how hot, cold, wet, or windy it might be!

Date:

Astronomy

Apr. 28, 2012 Rise Set
Actual Time 5:51 AM CDT 7:53 PM CDT
Civil Twilight 5:20 AM CDT 8:25 PM CDT
Nautical Twilight 4:42 AM CDT 9:03 PM CDT
Astronomical Twilight 4:00 AM CDT 9:45 PM CDT
Moon 11:30 AM CDT (4/28) 1:19 AM CDT (4/28)
Length of Visible Light 15h 04m
Length of Day
14h 02m
Waxing Crescent, 43% of the Moon is Illuminated
Apr 28
Waxing Crescent
Apr 29
First Quarter
May 5
Full
May 12
Last Quarter
May 20
New

Hourly Weather History & Observations

Time (CDT) Temp. Windchill Dew Point Humidity Pressure Visibility Wind Dir Wind Speed Gust Speed Precip Events Conditions
12:15 AM 41.0 °F 34.7 °F 15.8 °F 36% 30.19 in 10.0 mi ENE 10.4 mph - N/A   Overcast
12:35 AM 41.0 °F 34.7 °F 15.8 °F 36% 30.19 in 10.0 mi ENE 10.4 mph 16.1 mph N/A   Overcast
12:55 AM 41.0 °F 34.7 °F 17.6 °F 39% 30.20 in 10.0 mi East 10.4 mph - N/A   Overcast
1:15 AM 41.0 °F 34.7 °F 19.4 °F 42% 30.19 in 10.0 mi East 10.4 mph - N/A   Overcast
1:35 AM 41.0 °F 34.7 °F 21.2 °F 45% 30.19 in 10.0 mi ENE 10.4 mph - N/A   Overcast
1:55 AM 41.0 °F 34.7 °F 21.2 °F 45% 30.18 in 10.0 mi ENE 10.4 mph - N/A   Overcast
2:15 AM 41.0 °F 34.7 °F 23.0 °F 49% 30.16 in 10.0 mi ENE 10.4 mph 16.1 mph N/A   Overcast
2:35 AM 41.0 °F 34.3 °F 24.8 °F 53% 30.15 in 10.0 mi ENE 11.5 mph 17.3 mph N/A Rain Light Rain
2:55 AM 41.0 °F 33.5 °F 23.0 °F 49% 30.14 in 10.0 mi ENE 13.8 mph 17.3 mph N/A   Overcast
3:15 AM 39.2 °F 30.5 °F 26.6 °F 61% 30.12 in 10.0 mi ENE 16.1 mph - N/A Rain Light Rain
3:35 AM 37.4 °F 28.2 °F 26.6 °F 65% 30.09 in 10.0 mi ENE 16.1 mph 23.0 mph N/A Rain Rain
3:55 AM 37.4 °F 27.8 °F 26.6 °F 65% 30.08 in 10.0 mi ENE 17.3 mph 23.0 mph N/A Rain Light Rain
4:15 AM 37.4 °F 27.8 °F 26.6 °F 65% 30.07 in 10.0 mi ENE 17.3 mph 25.3 mph N/A   Scattered Clouds
4:55 AM 37.4 °F 28.5 °F 26.6 °F 65% 30.06 in 10.0 mi ENE 15.0 mph 19.6 mph N/A   Scattered Clouds
5:15 AM 39.2 °F 32.5 °F 26.6 °F 61% 30.08 in 10.0 mi ENE 10.4 mph 18.4 mph N/A   Mostly Cloudy
5:55 AM 41.0 °F 35.2 °F 28.4 °F 61% 30.12 in 10.0 mi East 9.2 mph - N/A   Overcast
6:15 AM 41.0 °F 36.4 °F 28.4 °F 61% 30.14 in 10.0 mi East 6.9 mph - N/A   Overcast
6:35 AM 41.0 °F 37.1 °F 30.2 °F 65% 30.15 in 10.0 mi East 5.8 mph - N/A   Overcast
6:55 AM 41.0 °F 36.4 °F 30.2 °F 65% 30.14 in 10.0 mi ENE 6.9 mph - N/A   Overcast
7:15 AM 41.0 °F 35.8 °F 30.2 °F 65% 30.13 in 10.0 mi ENE 8.1 mph - N/A   Overcast
7:55 AM 41.0 °F 34.7 °F 32.0 °F 70% 30.14 in 10.0 mi ESE 10.4 mph - N/A Rain Light Rain
8:15 AM 41.0 °F 36.4 °F 33.8 °F 76% 30.15 in 10.0 mi ESE 6.9 mph - N/A Rain Light Rain
8:35 AM 39.2 °F 32.0 °F 33.8 °F 81% 30.15 in 10.0 mi ESE 11.5 mph 16.1 mph N/A Rain Light Rain
8:55 AM 37.4 °F 30.3 °F 33.8 °F 87% 30.16 in 7.0 mi East 10.4 mph 20.7 mph 0.02 in Rain Light Rain
9:15 AM 37.4 °F 29.8 °F 37.4 °F 100% 30.15 in 7.0 mi East 11.5 mph - 0.01 in Rain Light Rain
9:35 AM 37.4 °F 32.1 °F 37.4 °F 100% 30.15 in 10.0 mi East 6.9 mph - 0.02 in Rain Light Rain
9:55 AM 39.2 °F 33.6 °F 37.4 °F 93% 30.15 in 10.0 mi East 8.1 mph - 0.03 in Rain Light Rain
10:15 AM 39.2 °F 33.0 °F 37.4 °F 93% 30.15 in 7.0 mi East 9.2 mph - 0.01 in Rain Rain
10:35 AM 37.4 °F 30.8 °F 37.4 °F 100% 30.16 in 7.0 mi East 9.2 mph - 0.02 in Rain Rain
10:55 AM 37.4 °F 31.4 °F 37.4 °F 100% 30.17 in 10.0 mi ENE 8.1 mph - 0.02 in   Drizzle
11:15 AM 39.2 °F 32.5 °F 39.2 °F 100% 30.19 in 7.0 mi ENE 10.4 mph - 0.01 in Rain Light Rain
11:35 AM 39.2 °F 33.0 °F 39.2 °F 100% 30.19 in 7.0 mi NE 9.2 mph - 0.02 in Rain Light Rain
11:55 AM 39.2 °F 33.0 °F 39.2 °F 100% 30.19 in 7.0 mi ENE 9.2 mph - 0.02 in   Drizzle
12:15 PM 41.0 °F 36.4 °F 41.0 °F 100% 30.19 in 10.0 mi ENE 6.9 mph - N/A Rain Rain
12:35 PM 41.0 °F 34.7 °F 41.0 °F 100% 30.18 in 10.0 mi East 10.4 mph - N/A Rain Rain
12:55 PM 41.0 °F 34.3 °F 41.0 °F 100% 30.18 in 7.0 mi ENE 11.5 mph - N/A   Drizzle
1:15 PM 41.0 °F 34.7 °F 41.0 °F 100% 30.18 in 5.0 mi East 10.4 mph - 0.01 in Rain Light Rain
1:35 PM 39.2 °F 31.6 °F 39.2 °F 100% 30.19 in 7.0 mi ENE 12.7 mph - 0.02 in Rain Light Rain
1:55 PM 41.0 °F 35.8 °F 39.2 °F 93% 30.19 in 7.0 mi ENE 8.1 mph - 0.03 in Rain Light Rain
2:15 PM 41.0 °F 35.2 °F 39.2 °F 93% 30.19 in 10.0 mi East 9.2 mph - N/A Rain Rain
2:35 PM 41.0 °F 36.4 °F 39.2 °F 93% 30.19 in 7.0 mi East 6.9 mph - N/A Rain Light Rain
2:55 PM 41.0 °F 34.7 °F 39.2 °F 93% 30.18 in 7.0 mi ENE 10.4 mph - 0.01 in Rain Rain
3:15 PM 41.0 °F 35.2 °F 41.0 °F 100% 30.19 in 10.0 mi ENE 9.2 mph - N/A   Light Drizzle
3:35 PM 41.0 °F 35.2 °F 39.2 °F 93% 30.19 in 10.0 mi ENE 9.2 mph - N/A   Light Drizzle
3:55 PM 41.0 °F 34.3 °F 39.2 °F 93% 30.18 in 10.0 mi ENE 11.5 mph 16.1 mph N/A   Overcast
4:15 PM 41.0 °F 33.9 °F 39.2 °F 93% 30.18 in 10.0 mi ENE 12.7 mph - N/A   Overcast
4:35 PM 39.2 °F 31.2 °F 37.4 °F 93% 30.19 in 10.0 mi ENE 13.8 mph 21.9 mph N/A   Overcast
4:55 PM 39.2 °F 32.5 °F 35.6 °F 87% 30.21 in 10.0 mi ENE 10.4 mph - N/A   Overcast
5:15 PM 39.2 °F 33.6 °F 35.6 °F 87% 30.21 in 10.0 mi ENE 8.1 mph - N/A   Overcast
5:35 PM 41.0 °F 33.9 °F 35.6 °F 81% 30.20 in 10.0 mi East 12.7 mph 16.1 mph N/A   Overcast
5:55 PM 41.0 °F 34.3 °F 35.6 °F 81% 30.21 in 10.0 mi ENE 11.5 mph - N/A   Overcast
6:15 PM 41.0 °F 34.7 °F 33.8 °F 76% 30.20 in 10.0 mi East 10.4 mph - N/A   Overcast
6:35 PM 41.0 °F 36.4 °F 33.8 °F 76% 30.21 in 10.0 mi NE 6.9 mph - N/A   Overcast
6:55 PM 41.0 °F 36.4 °F 35.6 °F 81% 30.20 in 10.0 mi NE 6.9 mph - N/A   Overcast
7:15 PM 41.0 °F 38.0 °F 33.8 °F 76% 30.20 in 10.0 mi NE 4.6 mph - N/A   Overcast
7:35 PM 41.0 °F 37.1 °F 32.0 °F 70% 30.20 in 10.0 mi NE 5.8 mph - N/A   Overcast
7:55 PM 41.0 °F 37.1 °F 32.0 °F 70% 30.20 in 10.0 mi ENE 5.8 mph - N/A   Overcast
8:15 PM 41.0 °F 35.8 °F 32.0 °F 70% 30.21 in 10.0 mi NE 8.1 mph - N/A   Overcast
8:35 PM 41.0 °F 36.4 °F 32.0 °F 70% 30.22 in 10.0 mi ENE 6.9 mph - N/A   Overcast
8:55 PM 41.0 °F 37.1 °F 32.0 °F 70% 30.23 in 10.0 mi NE 5.8 mph - N/A   Overcast
9:15 PM 41.0 °F 36.4 °F 32.0 °F 70% 30.24 in 10.0 mi ENE 6.9 mph - N/A   Mostly Cloudy
9:35 PM 39.2 °F 35.9 °F 30.2 °F 70% 30.25 in 10.0 mi ENE 4.6 mph - N/A   Scattered Clouds
9:55 PM 39.2 °F 37.0 °F 30.2 °F 70% 30.26 in 10.0 mi ENE 3.5 mph - N/A   Mostly Cloudy
10:15 PM 37.4 °F 34.9 °F 30.2 °F 75% 30.26 in 10.0 mi ENE 3.5 mph - N/A   Mostly Cloudy
10:35 PM 37.4 °F 32.1 °F 28.4 °F 70% 30.26 in 10.0 mi ENE 6.9 mph - N/A   Clear
11:15 PM 35.6 °F 30.7 °F 28.4 °F 75% 30.26 in 10.0 mi NE 5.8 mph - N/A   Clear
11:35 PM 35.6 °F 31.7 °F 28.4 °F 75% 30.26 in 10.0 mi NE 4.6 mph - N/A   Clear
11:55 PM 35.6 °F 31.7 °F 28.4 °F 75% 30.27 in 10.0 mi NE 4.6 mph - N/A   Clear